Wind_Speed
66 67 68 69 71 72 73 75 77 79 81 83 85 87 89 92 94 96 98 99 101 102 104 105 106 107 107 107 107 108 110 112 113 115 116 117 118 118 119 120 121 122 124 125 127 128 130 131 131 132 133 134 134 134 134 134 134 134 135 136 137 138 138 138 138 137 135 134 133 132 131 131 131 133 135 137 139 140 140 139 138 137 136 136 135
67 67 68 68 69 70 71 73 75 77 79 81 83 85 87 89 91 93 95 96 98 99 101 102 103 104 104 104 104 104 105 107 108 110 112 113 114 115 116 117 117 118 120 122 123 125 127 128 130 131 132 132 132 133 133 134 134 134 134 134 135 136 137 138 139 139 138 137 136 134 133 132 131 131 131 132 134 136 138 139 139 139 139 138 137
66 67 68 68 69 69 70 71 73 74 76 78 80 82 84 86 88 90 92 93 94 96 98 99 100 101 102 101 101 101 102 103 104 105 107 108 109 110 112 113 114 115 116 118 120 121 123 124 126 128 129 130 131 131 132 132 133 134 134 134 134 134 134 135 137 138 139 139 139 137 136 135 134 133 131 130 131 132 134 135 136 137 138 139 139
65 65 66 67 68 68 69 70 71 72 74 75 77 79 80 82 84 87 88 89 90 93 95 96 97 98 98 98 98 98 98 99 100 101 102 103 105 106 108 109 110 111 113 114 116 118 119 121 122 123 125 127 128 129 130 131 132 133 133 134 134 133 133 133 134 135 137 138 139 138 138 137 137 136 134 133 133 132 132 132 132 133 134 135 137
63 63 64 64 65 66 67 68 69 70 71 73 74 76 77 79 81 83 85 86 88 91 92 93 94 95 95 95 95 95 95 95 96 97 98 99 101 102 104 106 107 108 109 110 112 114 115 117 118 119 121 122 123 125 127 129 130 131 132 133 133 133 133 133 134 134 135 135 136 137 138 138 138 137 137 137 136 135 134 133 131 131 131 131 131
59 59 60 60 61 62 64 65 66 67 68 69 71 72 74 75 77 79 80 82 84 87 88 89 92 92 92 92 92 93 93 93 93 93 94 96 97 99 101 102 104 104 105 106 108 110 111 113 115 116 117 118 119 121 123 125 127 130 131 132 133 133 133 133 134 134 135 135 135 135 135 136 137 137 138 139 139 138 137 136 134 132 131 130 129
59 58 58 57 57 58 59 61 63 64 66 67 68 69 70 71 72 74 76 78 81 83 84 87 89 89 89 90 90 91 92 92 92 91 91 93 94 96 98 100 101 101 102 103 104 106 108 109 111 112 113 115 116 118 119 121 123 126 128 130 132 132 133 133 133 134 135 135 135 135 135 135 135 135 137 138 139 139 139 139 138 136 134 132 131
62 61 61 60 59 58 57 58 59 61 62 64 65 66 67 67 68 69 71 74 77 79 82 84 85 85 85 86 87 88 89 89 89 88 89 91 92 94 96 97 98 99 99 100 101 103 104 106 107 109 110 112 114 115 117 118 120 122 124 127 128 130 132 132 133 133 134 135 135 136 136 135 135 134 135 136 137 138 139 140 140 139 138 135 134
63 63 63 63 62 61 60 58 58 58 59 60 61 62 64 64 65 66 68 70 73 76 78 81 82 81 81 81 82 83 84 84 85 86 87 89 90 92 94 96 96 97 97 98 99 99 101 102 103 105 107 110 112 114 115 117 118 120 121 123 125 127 129 130 131 132 134 134 135 136 136 136 136 135 135 135 135 136 136 138 139 140 140 138 136
60 61 62 63 63 63 62 61 60 59 58 57 57 58 59 60 61 63 65 67 70 72 75 77 78 78 77 77 78 79 80 80 81 83 85 87 88 89 92 93 94 94 95 95 95 96 97 98 99 101 104 107 110 113 115 117 118 119 121 122 123 125 126 128 129 130 132 133 134 135 136 136 136 136 135 135 136 135 135 136 138 139 139 139 138
56 57 57 58 59 59 60 60 59 59 58 57 56 55 54 54 56 57 60 63 66 68 71 72 73 73 73 73 73 74 76 77 78 79 82 84 86 87 89 91 91 91 91 92 92 93 93 93 95 97 100 103 107 110 113 115 117 118 120 121 123 124 126 127 128 129 130 132 133 134 135 135 136 136 136 136 136 136 136 136 136 138 138 138 138
55 54 53 53 53 53 54 55 56 56 57 56 55 54 52 51 51 52 54 58 61 63 65 67 68 68 68 68 69 70 71 73 75 77 80 83 85 86 87 88 89 88 88 89 91 91 91 92 93 95 97 100 103 105 107 110 112 115 117 119 121 123 125 127 129 130 131 132 132 134 135 135 136 136 137 137 137 137 137 137 136 137 137 137 137
56 54 52 50 49 49 49 50 51 52 53 53 53 53 52 51 50 49 51 53 55 57 59 61 62 63 64 65 65 66 67 69 71 74 78 81 82 83 84 85 85 85 85 87 90 90 90 92 94 96 97 99 100 101 102 103 105 107 110 113 116 118 121 124 126 128 130 131 133 134 135 136 137 137 138 138 138 138 138 138 137 138 138 137 137
56 54 52 49 47 46 45 45 46 48 49 50 50 51 50 49 48 48 49 50 51 52 54 56 57 58 60 61 62 63 65 66 68 71 74 77 79 79 79 80 81 82 83 85 87 88 89 91 94 95 96 97 97 98 98 99 100 102 104 106 109 112 116 118 120 122 125 127 129 132 134 135 136 138 139 140 140 139 139 139 138 138 139 139 139
57 55 53 52 50 48 46 44 43 43 44 46 47 48 48 48 47 47 47 47 48 49 50 51 52 54 55 56 58 60 62 63 65 67 70 73 74 75 75 76 78 80 81 84 86 88 88 89 91 93 93 94 94 95 95 96 97 98 100 102 105 108 111 113 115 117 120 122 124 126 129 131 133 135 138 140 140 140 140 140 140 140 140 140 140
56 54 53 52 51 50 49 47 45 43 43 43 43 43 45 45 46 46 46 46 46 46 47 48 49 50 51 52 54 56 59 61 63 64 66 68 70 71 72 74 77 79 80 82 85 86 86 87 87 88 89 90 91 92 92 93 95 96 97 100 102 105 107 109 111 114 116 118 120 122 124 126 128 130 133 136 138 139 139 140 141 141 141 141 140
53 51 50 48 47 46 46 45 45 45 44 44 42 41 41 42 42 43 44 44 44 45 45 45 46 48 49 50 51 52 54 57 59 61 62 64 65 67 69 72 74 76 77 79 81 82 82 82 82 83 84 86 88 89 89 90 92 93 95 98 100 102 104 105 108 110 112 115 117 118 120 121 123 125 128 131 134 136 137 138 139 140 141 141 141
53 51 50 50 48 46 44 43 43 42 43 43 43 43 41 40 40 40 41 41 42 43 43 44 45 46 47 47 48 49 51 53 54 57 59 61 62 64 66 68 70 72 73 75 76 77 77 77 78 79 81 82 83 84 85 86 88 90 93 95 98 100 102 103 106 108 109 111 113 115 116 117 119 122 125 127 130 133 135 136 136 138 139 140 140
55 53 52 52 51 49 47 45 43 42 41 41 41 42 42 41 40 39 39 40 40 40 41 41 43 44 45 45 46 47 49 50 52 53 55 56 58 60 61 63 66 67 69 70 71 71 72 73 74 75 77 78 79 80 82 83 85 87 89 92 94 97 100 102 105 107 108 109 110 111 113 114 116 119 122 124 127 129 131 133 134 135 137 137 137
53 52 52 51 50 49 48 47 45 43 42 41 41 41 41 41 40 39 38 38 38 39 39 39 40 41 42 43 44 44 46 48 49 51 52 53 54 56 57 59 61 63 65 65 66 67 68 69 70 71 72 74 75 77 79 81 82 84 86 88 91 94 96 99 102 104 106 107 108 108 109 110 113 116 119 122 124 125 127 129 131 132 133 134 135
55 53 51 50 49 48 48 47 46 45 43 42 41 40 39 39 39 39 38 37 37 37 37 38 38 39 40 40 41 42 43 44 46 48 49 50 52 53 54 55 57 59 60 61 62 63 64 64 65 66 67 69 71 73 74 76 77 79 81 84 87 90 92 95 98 100 102 104 105 106 107 108 110 112 115 117 120 122 124 126 128 129 130 131 132
59 55 52 50 49 48 47 47 46 45 44 43 41 40 39 38 37 37 37 37 36 35 35 36 36 37 37 38 39 39 40 41 43 44 46 47 48 50 51 52 54 55 56 57 58 59 60 61 62 63 64 65 67 68 69 70 72 74 77 80 83 85 87 90 93 95 98 100 101 103 105 106 108 110 111 113 115 117 119 121 124 125 126 128 129
62 57 54 52 51 49 48 46 45 44 44 43 41 40 39 37 36 35 35 35 35 34 34 34 35 35 36 36 37 38 38 39 41 42 44 45 45 46 47 49 51 52 52 53 54 55 57 58 59 60 61 62 63 63 64 65 67 70 73 76 79 81 84 86 89 91 93 95 97 99 102 104 106 107 108 110 111 113 114 116 118 120 123 124 126
68 63 59 57 54 51 50 48 46 44 43 42 41 40 39 37 35 34 34 33 33 33 32 32 32 33 34 34 35 35 36 37 39 40 42 43 44 45 46 47 48 49 50 50 51 52 53 55 57 57 58 58 58 58 59 61 64 67 70 73 76 78 80 82 85 87 89 91 93 95 98 100 102 103 105 107 109 110 111 112 113 115 118 120 123
75 70 65 61 58 55 52 50 48 46 44 42 40 39 38 37 36 34 32 32 31 31 31 31 30 31 31 31 31 32 32 34 35 37 39 41 42 43 44 45 46 47 48 48 49 50 51 54 54 54 54 54 53 54 57 61 63 66 68 70 72 73 75 77 80 82 85 88 90 92 94 96 97 99 101 103 105 107 108 109 111 112 113 115 118
78 73 67 63 60 58 55 53 50 47 45 43 41 39 38 37 36 35 33 32 30 30 29 29 29 29 30 30 30 30 30 31 32 34 36 38 39 40 41 42 43 44 46 47 48 49 51 52 50 48 48 49 51 54 57 59 60 62 65 67 68 68 70 71 73 76 79 81 84 87 90 92 94 95 97 100 101 102 104 106 108 109 110 111 112
80 75 70 66 63 60 57 55 52 49 47 44 42 40 38 36 35 34 33 32 31 29 28 28 27 28 28 29 29 29 29 29 30 31 33 35 36 37 38 40 41 43 44 46 47 49 50 48 45 43 44 46 50 52 52 54 56 60 63 65 65 66 67 67 68 70 72 74 77 80 84 87 90 93 95 97 98 99 100 102 104 106 107 108 109
83 80 75 71 66 62 59 56 54 52 49 46 44 42 40 37 35 34 32 31 31 30 28 27 26 26 26 27 28 28 29 29 29 29 30 31 33 34 36 37 39 41 43 44 45 47 46 43 41 41 42 44 47 47 47 50 54 57 60 61 61 62 63 63 64 65 66 68 71 74 77 81 84 88 91 93 95 96 96 98 100 101 103 105 106
85 82 78 74 69 65 61 58 55 53 52 49 47 44 42 39 37 35 33 31 30 29 28 27 26 25 25 25 25 26 27 27 28 28 28 29 30 32 34 36 38 40 42 42 43 43 41 40 40 40 41 42 42 42 45 48 51 54 56 57 58 58 59 60 61 62 63 65 67 69 72 75 78 81 85 88 91 92 93 94 96 97 99 100 102
86 83 80 76 72 68 64 61 58 55 53 51 49 47 44 41 38 36 34 32 30 29 27 27 26 25 25 24 24 24 24 24 25 25 26 27 28 30 32 34 36 38 39 39 39 38 38 38 39 38 38 39 38 39 42 45 48 50 53 54 54 55 56 57 59 60 61 62 64 66 69 71 73 76 79 82 86 88 90 91 91 93 94 96 97
88 84 81 78 75 71 68 64 61 58 55 52 50 48 46 44 41 38 36 33 31 29 27 26 25 24 23 23 23 23 23 23 22 22 22 24 26 28 31 33 35 35 35 35 35 35 36 36 36 36 36 35 35 36 39 41 44 47 49 51 52 52 52 54 56 57 58 60 62 64 66 68 70 72 75 77 80 83 86 88 88 88 89 91 93
89 86 83 80 77 73 70 67 64 62 59 55 51 48 47 45 43 41 38 36 33 30 28 26 25 23 23 22 21 21 22 22 21 20 19 20 22 25 28 31 33 33 33 33 33 33 34 34 34 34 34 33 33 35 37 40 42 44 46 48 49 49 50 51 52 54 55 57 59 61 63 65 66 68 71 73 76 78 81 84 85 85 85 87 89
91 87 84 81 78 75 72 68 66 64 62 59 55 51 49 46 44 43 41 39 36 34 31 29 26 25 24 22 21 20 20 20 20 19 19 19 19 22 24 27 29 30 30 31 32 32 33 32 32 32 32 32 33 35 36 38 40 41 43 45 47 48 48 49 50 51 53 54 55 57 59 61 63 65 67 69 72 74 76 79 81 82 83 84 86
93 89 86 83 80 77 74 71 68 65 63 60 57 54 52 49 46 43 41 40 39 37 34 32 29 27 25 24 23 21 20 20 19 18 18 18 18 19 21 23 25 26 27 28 29 30 30 30 31 31 31 32 33 34 35 37 39 40 41 43 44 46 46 47 48 49 51 51 52 54 55 57 59 62 64 66 68 70 72 75 77 78 80 81 83
97 92 89 85 82 80 77 74 71 68 65 61 58 56 54 52 48 45 42 40 39 38 36 34 31 28 26 25 24 23 22 21 20 18 18 17 17 17 18 20 21 23 24 25 26 27 28 29 29 30 31 32 33 34 35 36 37 38 39 40 41 43 44 45 46 47 49 50 50 52 53 55 56 59 61 63 65 67 70 72 74 75 77 78 80
101 95 91 87 84 81 79 76 73 70 67 64 61 58 56 54 51 48 45 42 41 39 37 35 33 30 28 26 25 24 23 21 20 19 18 17 16 16 17 17 19 20 21 22 23 24 25 27 28 29 30 31 32 33 34 34 35 36 36 37 38 40 41 43 44 45 47 47 49 50 51 52 54 56 58 60 62 65 67 69 71 73 74 76 77
106 100 94 90 87 84 81 78 75 72 69 66 63 61 59 56 54 51 48 45 44 42 39 37 35 32 30 28 26 25 23 22 21 20 18 17 16 15 15 16 17 18 19 20 21 22 23 24 25 27 28 29 30 31 32 33 34 35 35 36 36 37 39 41 42 44 45 46 47 48 49 50 52 54 55 57 59 62 64 66 68 70 71 73 74
113 106 99 94 90 87 83 80 77 74 71 68 66 63 61 59 57 54 51 49 46 44 42 40 37 35 32 30 27 25 24 22 20 19 18 17 16 15 14 14 15 16 17 18 19 20 21 22 24 25 26 27 28 29 31 32 33 34 34 34 35 35 36 39 40 42 43 44 45 46 47 48 50 51 53 54 57 59 62 64 66 67 69 71 72
118 111 105 99 94 89 86 83 79 76 73 70 68 66 63 61 59 57 55 52 49 46 44 42 40 38 35 32 30 27 24 22 20 19 17 16 15 15 14 14 14 15 16 17 18 19 20 21 22 24 25 26 27 28 29 30 31 32 33 33 34 34 34 36 38 40 41 43 43 44 45 46 47 49 50 52 54 57 60 62 63 65 67 69 70
124 117 109 103 98 93 89 85 82 79 75 72 69 68 65 63 61 59 56 54 51 49 46 44 42 39 37 34 32 30 27 25 22 20 18 17 15 14 14 14 13 13 14 15 16 17 18 19 21 22 23 25 26 27 28 29 30 31 32 32 33 33 33 34 36 37 39 40 42 43 44 44 45 46 48 50 53 56 58 60 61 64 66 67 66
130 123 115 108 102 96 91 88 85 82 78 75 72 69 67 64 62 59 57 55 53 50 48 45 43 41 38 36 33 31 29 27 25 22 20 18 16 15 13 12 12 12 12 13 13 14 15 16 17 19 20 22 23 25 26 27 28 30 30 31 31 32 32 32 33 35 37 38 40 41 42 42 43 44 46 48 51 54 56 58 60 62 63 62 62
134 129 122 114 107 101 95 91 87 84 81 78 74 71 68 65 63 60 58 56 54 52 49 47 44 42 40 37 35 33 30 29 27 25 23 20 18 16 15 13 12 11 11 11 12 12 13 14 15 16 17 19 21 22 23 25 26 27 28 28 29 30 30 31 32 33 35 37 38 39 40 41 42 43 45 47 50 52 54 56 58 60 60 60 61
136 133 127 120 113 106 100 94 89 86 83 80 77 73 70 67 64 62 59 57 55 53 50 48 46 44 41 38 36 33 31 29 27 26 24 22 21 19 17 15 14 13 12 11 11 12 12 13 13 14 15 17 18 20 21 22 24 25 25 26 27 27 28 28 29 31 33 35 36 38 39 40 41 42 44 46 48 50 52 55 56 57 58 58 59
138 135 132 126 118 111 104 98 93 88 84 81 78 75 72 69 66 63 60 58 56 54 51 49 46 44 42 40 37 35 32 30 27 26 24 23 21 20 19 18 16 15 14 13 12 11 11 12 12 13 14 14 15 17 18 19 21 22 23 24 25 26 26 26 27 28 29 31 33 35 37 39 40 41 43 45 47 49 51 53 54 55 55 55 56
140 137 134 130 124 116 109 102 97 92 87 83 80 77 74 71 68 65 63 60 57 55 52 50 48 45 43 41 39 36 34 31 29 26 25 23 22 20 19 18 17 16 15 14 13 12 11 11 11 12 12 13 13 14 15 17 18 19 21 22 23 24 25 26 26 27 28 29 30 32 34 36 38 39 41 43 45 47 49 50 51 52 52 52 53
142 140 136 133 129 122 114 107 101 96 91 87 83 80 77 74 71 68 65 62 60 57 55 52 50 48 45 42 40 38 35 33 31 28 26 24 23 21 20 19 18 17 16 16 15 14 13 12 11 11 11 12 12 12 13 15 16 17 18 19 20 21 22 24 25 26 27 28 28 29 31 33 35 37 38 40 42 44 45 47 48 48 48 49 51
144 142 139 136 132 128 121 113 106 100 95 90 86 82 79 76 73 70 67 64 62 59 57 54 52 49 47 45 42 39 37 35 32 30 28 26 24 23 22 20 19 18 17 17 16 16 15 14 13 12 12 12 11 11 12 13 14 15 16 17 18 19 20 21 23 24 26 26 27 27 28 30 32 34 36 37 39 40 42 43 44 45 46 47 48
146 144 142 138 135 131 126 119 112 105 99 94 89 85 81 78 75 72 69 66 63 60 58 56 54 51 49 47 45 42 39 37 35 33 30 28 26 24 22 21 20 19 18 17 16 16 15 15 15 14 13 13 12 11 11 12 13 14 15 16 16 17 18 19 21 22 24 25 25 26 27 27 29 30 32 34 35 37 38 40 41 43 44 44 45
146 146 144 141 137 134 130 124 117 109 103 97 92 87 83 80 76 73 70 67 64 61 59 57 55 53 50 49 47 45 42 39 36 34 33 30 28 26 24 22 21 19 18 17 16 16 15 15 15 15 14 14 13 12 12 12 12 13 13 14 15 15 16 17 19 20 21 22 23 24 25 26 27 27 28 30 31 33 35 37 39 40 41 41 42
147 147 147 145 142 137 133 129 122 114 106 100 95 90 85 81 78 75 72 69 66 63 60 57 55 53 51 49 47 46 44 41 39 36 34 32 30 28 26 24 22 20 19 18 17 16 15 14 14 14 14 14 13 13 13 13 12 13 13 13 13 14 15 15 16 18 19 20 21 22 22 23 25 25 26 27 29 30 32 34 36 37 38 38 39
146 147 148 148 146 142 137 132 127 120 111 103 98 93 88 84 80 77 74 71 69 66 63 60 57 55 53 50 48 46 44 43 40 38 36 34 33 31 28 26 24 22 20 18 17 16 15 14 14 13 13 13 12 12 12 12 12 12 12 12 12 13 13 14 15 16 16 17 18 19 20 21 22 23 24 25 26 28 29 31 32 34 35 36 37
Wind_Direction
288 285 282 279 277 275 274 272 270 269 267 266 265 263 262 261 261 261 260 260 260 259 259 259 259 258 257 256 255 255 254 253 253 253 253 252 252 252 252 251 251 250 249 249 248 247 246 246 245 245 244 244 244 243 243 243 243 243 243 243 243 243 243 243 243 244 244 244 245 246 245 245 244 244 245 245 246 246 246 245 245 245 245 245 244
291 288 285 283 280 278 276 274 272 270 269 268 267 266 265 264 263 262 261 260 260 260 259 259 259 258 258 257 256 255 254 253 252 252 252 251 251 251 251 251 251 250 250 249 249 248 247 247 246 246 245 245 245 244 244 244 243 243 243 243 243 243 243 243 243 243 243 243 243 244 245 245 245 245 244 245 245 245 246 245 245 245 245 245 245
293 290 288 286 284 282 279 277 274 273 271 270 268 267 266 265 265 264 263 262 261 261 260 260 259 259 258 258 257 256 254 254 253 252 252 251 251 250 250 250 250 250 249 249 249 248 248 247 247 246 246 245 245 245 245 244 244 244 244 244 244 243 243 243 243 243 243 243 243 243 243 244 245 245 245 245 244 245 245 245 245 244 244 245 245
294 292 290 288 286 284 282 280 278 276 274 273 271 269 268 267 266 265 265 265 264 263 262 261 261 260 260 259 259 258 257 256 254 254 253 252 252 251 250 250 249 248 248 248 248 248 248 247 247 247 246 246 245 245 245 245 244 244 244 244 243 243 243 243 243 243 243 243 243 242 242 243 243 244 245 245 245 244 244 245 245 245 244 244 244
297 295 292 290 288 286 284 282 280 279 277 275 274 272 271 269 267 266 266 265 264 263 263 263 262 261 261 261 260 260 259 258 257 255 255 254 253 253 252 251 250 249 248 247 247 246 247 247 247 246 246 246 246 246 245 245 245 244 244 244 243 243 243 243 243 243 243 243 243 242 242 242 242 243 244 244 245 245 245 244 245 245 245 244 244
299 296 294 291 289 287 285 283 281 279 277 276 274 273 271 270 268 267 267 266 265 265 265 264 263 263 262 262 261 261 260 259 258 257 256 255 254 254 253 252 251 250 248 247 246 245 245 245 245 245 246 246 245 245 245 245 245 245 244 244 243 242 242 242 243 243 243 242 242 242 242 242 241 242 242 243 244 245 245 245 244 244 245 245 244
304 301 297 294 290 288 285 283 281 280 278 276 274 273 271 270 269 268 267 266 266 265 265 264 264 264 263 262 261 260 260 259 259 258 257 256 255 254 253 252 251 250 249 248 246 245 244 243 243 243 244 244 244 244 244 244 244 244 244 244 243 243 242 241 241 242 242 242 242 241 241 241 241 241 241 242 242 243 244 245 245 244 244 244 245
309 306 303 300 297 293 290 286 283 281 279 278 276 275 274 272 270 269 267 266 265 265 264 263 263 263 262 262 261 260 260 260 259 258 257 256 255 255 254 253 252 251 249 248 247 245 243 242 242 242 242 242 242 242 243 243 243 243 243 244 243 243 243 242 241 241 241 241 241 241 241 240 240 239 240 240 241 242 243 243 244 244 244 243 244
311 309 306 304 302 299 296 293 289 286 283 280 278 277 275 274 272 270 268 267 265 264 263 263 263 262 262 262 261 261 261 261 260 259 258 256 255 254 254 253 253 252 251 249 248 246 245 243 242 241 240 240 241 241 241 241 241 241 241 242 242 242 242 242 242 241 241 241 241 241 241 240 240 239 239 239 239 240 241 242 243 243 243 243 243
311 309 306 304 303 301 300 298 295 292 289 286 282 279 277 275 273 271 269 267 265 264 263 262 262 262 261 260 260 260 260 260 259 258 258 257 256 255 254 254 253 253 252 252 251 249 248 246 244 243 241 240 240 239 239 239 239 239 239 240 240 240 240 241 241 241 241 241 241 241 241 240 240 239 239 238 238 238 239 240 241 242 242 242 242
312 309 306 304 302 301 300 299 297 296 294 291 288 285 281 278 275 273 271 269 267 266 265 264 264 264 263 262 260 259 258 258 257 256 256 255 254 254 253 253 252 251 251 252 251 251 250 249 248 246 244 243 241 240 239 239 239 238 238 238 238 238 239 239 239 239 240 240 240 240 240 240 240 239 239 238 238 237 237 238 239 240 241 241 241
317 313 310 307 305 303 301 299 298 297 295 294 292 290 287 283 279 275 272 270 269 268 268 267 267 266 265 264 262 260 258 256 255 254 253 253 252 252 252 252 251 250 249 249 249 249 249 249 248 247 246 245 243 242 241 241 240 240 239 239 239 239 238 238 238 238 238 238 238 238 239 239 239 239 238 238 238 237 237 236 237 238 240 240 240
323 319 316 313 311 308 305 303 301 299 297 296 294 293 290 287 283 279 275 272 270 269 268 268 267 266 265 263 261 259 257 255 253 252 252 253 253 252 252 252 252 251 250 249 248 247 246 246 246 245 245 244 244 243 243 242 242 242 241 241 241 241 240 240 240 239 238 238 238 238 238 238 238 238 238 238 237 237 236 236 236 237 238 239 239
327 324 321 318 315 313 310 307 304 302 300 298 296 295 293 290 287 284 280 277 274 272 270 268 267 266 264 263 262 260 258 255 253 251 251 252 252 253 252 252 252 252 251 250 249 248 246 245 245 245 245 244 244 244 243 243 243 242 242 242 242 242 242 242 241 241 241 240 239 239 238 238 238 239 239 238 237 236 236 236 235 236 236 237 238
331 329 326 324 322 319 316 313 309 305 302 300 298 297 295 294 292 288 285 281 279 276 274 272 270 267 265 263 261 260 259 257 255 253 251 251 252 252 252 252 251 250 249 249 249 248 247 245 245 245 245 245 245 245 244 244 244 243 243 243 242 242 241 241 241 241 241 241 241 240 240 239 239 239 239 240 239 237 236 236 235 235 235 236 236
334 332 329 327 325 322 320 318 314 310 306 302 299 297 296 295 293 291 289 286 283 279 277 274 272 270 267 264 262 259 258 256 255 254 252 251 251 251 250 249 249 248 247 247 247 248 247 247 246 246 246 246 246 246 245 245 244 244 243 243 243 242 242 242 241 241 241 241 240 240 240 240 239 239 239 240 240 239 238 237 236 235 235 235 235
337 333 330 328 325 323 321 319 317 314 311 307 304 300 297 295 293 291 289 287 285 283 280 277 274 271 269 266 264 262 259 257 256 255 254 252 251 250 249 248 248 248 248 248 248 248 249 249 249 248 248 248 247 247 246 245 245 244 244 244 244 244 243 243 242 242 241 240 240 240 240 239 239 239 239 239 240 240 240 238 237 237 236 235 235
340 338 335 333 330 328 325 322 319 316 313 311 308 305 302 298 295 292 289 287 285 283 281 279 276 274 271 268 266 264 262 260 257 256 255 254 253 251 250 250 250 249 249 249 250 250 250 250 249 249 248 248 248 248 247 246 245 244 244 243 244 244 244 243 243 243 242 241 240 240 239 239 239 239 239 239 239 239 240 239 239 238 237 236 235
345 343 341 338 335 333 330 328 325 321 318 315 311 309 306 303 300 296 293 289 287 284 281 279 277 275 273 271 268 266 263 262 260 258 256 255 254 253 252 252 252 251 251 250 250 250 250 249 248 248 248 247 247 247 246 245 245 244 243 243 243 243 243 243 243 243 243 242 241 240 239 239 238 238 238 238 238 238 239 239 239 239 238 237 236
349 348 345 343 339 337 334 332 330 327 324 321 317 314 311 308 305 301 297 293 290 287 284 281 279 276 274 272 270 268 265 263 262 260 259 258 256 255 254 253 253 253 252 252 251 251 249 248 248 247 247 246 246 245 245 244 244 244 244 244 243 243 242 242 243 243 243 243 243 242 241 240 239 238 238 238 238 238 238 238 238 238 239 238 237
354 353 350 348 345 342 340 337 335 332 330 327 323 320 316 313 310 306 302 298 294 290 287 284 281 278 276 273 271 269 266 265 263 262 261 259 258 257 255 254 253 253 253 253 253 253 252 251 250 249 248 247 246 245 245 244 244 244 244 244 243 243 243 243 243 243 243 243 243 243 243 242 241 240 239 239 238 238 238 238 238 238 238 239 238
357 355 354 353 351 349 346 343 339 336 334 331 328 325 322 319 315 312 308 304 300 295 291 287 284 280 278 275 272 270 267 265 264 263 261 260 259 258 258 257 256 255 254 254 254 254 254 253 252 251 250 249 247 246 246 245 244 244 243 243 243 243 243 243 243 243 243 243 243 243 243 242 242 241 241 240 239 239 238 237 237 237 237 238 238
359 358 357 357 356 354 351 348 344 341 338 335 333 330 327 324 321 317 313 309 306 302 297 293 288 284 280 277 274 272 269 266 264 263 262 260 259 258 257 257 256 256 255 255 254 254 254 254 253 252 251 250 249 248 247 246 245 244 244 243 243 242 242 242 242 242 242 242 242 242 242 242 242 242 241 241 240 240 239 238 237 237 236 236 237
1 0 360 359 359 358 356 353 350 347 343 340 337 334 331 329 326 322 318 314 310 307 303 299 294 289 285 281 278 275 272 269 266 264 263 262 260 259 258 257 256 256 255 254 254 253 253 252 252 251 251 250 250 249 248 247 246 245 244 243 242 241 241 241 241 241 241 241 241 241 242 242 242 241 241 241 241 240 240 239 238 237 236 235 235
3 2 1 0 0 360 359 357 354 351 349 345 342 339 336 333 330 327 323 319 315 311 308 304 300 295 291 287 283 279 275 272 269 266 264 262 261 260 259 258 257 257 256 255 254 252 251 250 250 250 250 251 250 249 247 246 245 245 244 244 243 242 241 240 240 239 239 240 240 240 241 241 242 242 241 241 241 240 240 239 239 238 237 235 233
4 3 2 1 1 1 0 359 357 355 353 350 347 344 341 338 335 331 328 325 321 317 313 309 305 301 296 292 288 283 279 275 271 269 266 265 263 262 260 259 258 258 257 256 255 254 253 252 252 252 251 250 249 247 246 246 246 246 246 246 246 245 244 242 241 240 239 239 238 239 239 240 241 241 241 241 241 241 240 239 239 239 238 236 234
4 3 3 3 3 3 2 1 359 358 356 355 352 349 346 343 340 336 333 330 327 323 320 315 311 306 301 297 293 289 284 280 275 272 269 267 266 264 262 261 259 258 257 257 256 256 256 258 258 256 253 251 249 248 248 247 246 246 246 247 247 246 246 245 244 242 241 240 239 238 238 238 239 239 240 241 241 240 240 240 239 239 238 238 236
5 4 4 4 4 4 4 3 1 0 359 358 357 354 352 349 347 343 339 335 332 329 326 323 318 312 307 301 297 293 289 285 281 276 272 269 268 266 264 262 260 259 258 258 258 258 260 262 261 257 254 251 250 249 248 247 246 246 246 247 247 247 247 246 245 244 243 242 241 240 239 238 238 238 239 240 241 241 240 239 239 239 238 238 237
6 5 5 4 4 4 4 5 4 3 1 360 359 358 356 354 351 349 346 342 338 335 331 328 325 320 315 309 302 297 292 289 285 282 277 273 269 266 263 261 259 259 259 260 260 262 263 262 260 257 254 252 251 249 247 247 247 247 248 248 248 248 248 248 247 246 244 243 242 241 240 239 238 237 238 239 240 241 241 240 239 239 238 238 237
8 7 5 5 4 4 4 5 6 6 4 2 0 359 357 356 354 353 351 348 344 341 337 333 329 326 322 317 311 304 298 293 288 284 281 277 273 269 265 263 261 260 261 262 262 262 262 260 259 257 256 254 253 250 248 248 248 249 249 250 249 248 248 248 247 246 245 244 243 241 240 240 239 238 238 238 239 240 241 241 241 240 239 238 237
9 8 6 6 5 5 5 5 6 7 6 5 3 1 359 358 357 356 355 353 350 347 343 339 334 330 326 322 317 312 307 301 295 287 282 277 274 272 270 268 268 268 268 268 267 265 263 262 261 259 258 256 254 252 250 249 248 249 250 250 250 248 247 246 246 246 245 244 243 242 241 240 239 238 238 238 238 239 240 241 242 241 240 239 238
10 9 8 7 6 6 6 6 6 7 7 6 5 4 2 0 359 358 358 357 355 353 349 346 341 336 332 328 323 318 313 308 303 296 287 278 273 270 270 271 272 273 273 272 270 268 267 266 264 262 261 258 254 252 249 249 249 249 249 250 251 250 248 247 246 246 245 244 243 242 241 241 240 239 239 238 238 239 239 240 241 241 240 239 238
11 11 10 8 7 7 7 7 7 8 7 6 6 6 5 4 2 1 360 360 359 357 354 351 347 343 339 335 330 324 318 313 309 303 296 286 276 271 269 269 271 273 273 272 270 269 269 267 265 264 262 259 255 252 250 249 249 248 248 249 250 251 250 249 247 246 246 245 244 243 242 241 241 240 240 240 239 239 239 240 240 240 240 239 238
12 12 11 10 9 8 8 8 8 9 8 7 7 7 7 6 5 4 2 1 0 359 357 355 353 349 345 341 336 331 325 320 315 310 303 295 285 277 271 268 268 268 268 268 268 268 267 265 263 261 259 257 254 252 251 250 249 248 247 247 248 249 250 250 249 248 247 246 245 244 243 242 241 241 240 240 240 240 240 240 240 239 239 239 238
13 13 12 11 11 10 10 9 9 9 9 8 8 8 8 7 6 6 5 4 3 1 360 359 357 354 351 347 343 338 332 326 321 316 311 304 296 288 280 274 270 268 267 266 265 264 263 261 259 257 256 255 254 254 253 252 251 250 248 247 247 248 248 248 248 248 247 246 245 244 243 242 241 241 240 240 241 241 241 240 240 240 239 238 238
14 14 13 12 12 12 11 11 10 10 9 9 9 10 9 8 7 7 7 7 6 4 2 0 359 357 354 352 349 344 338 333 327 322 317 312 306 299 292 284 279 275 272 271 268 266 264 262 260 259 257 256 256 256 256 256 255 253 250 248 247 247 247 247 247 247 247 246 246 244 243 242 241 240 240 240 240 240 240 240 240 240 239 239 238
15 14 14 13 13 13 12 12 12 11 10 10 10 10 10 9 8 8 8 8 7 6 5 3 0 358 356 354 351 348 344 339 334 329 325 319 313 306 298 291 285 280 277 274 272 269 267 265 264 262 260 259 258 257 257 257 256 256 254 251 248 247 246 246 246 245 246 246 245 245 244 243 242 241 240 239 239 239 240 240 239 239 239 239 238
15 14 14 14 14 13 13 13 12 12 11 11 11 11 11 10 9 8 8 8 8 7 6 4 2 1 359 357 354 352 349 345 340 336 331 325 319 311 302 294 287 281 278 275 272 270 268 266 265 264 262 260 259 258 257 257 258 257 257 255 252 249 248 247 246 245 245 244 244 244 244 243 242 241 241 240 239 239 239 239 238 238 238 238 238
16 15 14 14 14 14 13 13 13 13 12 12 12 12 11 11 10 9 8 8 7 7 6 5 4 2 1 359 358 356 353 350 346 341 336 331 324 317 310 302 295 288 282 278 275 272 269 267 265 263 262 261 260 258 257 257 257 257 257 258 256 253 251 249 248 247 246 245 245 244 243 242 242 241 241 240 239 239 238 238 238 237 237 237 236
16 15 15 15 14 14 14 13 13 13 13 13 13 13 12 12 11 10 8 7 7 7 6 6 5 3 2 360 358 357 355 352 349 345 340 335 330 325 319 312 305 298 291 285 281 278 274 271 269 267 265 264 262 260 258 257 256 256 255 255 255 253 251 248 247 246 245 245 245 244 243 243 242 240 240 239 238 238 238 238 237 237 237 236 236
16 16 15 15 15 14 14 14 13 13 13 13 14 14 13 13 12 11 10 8 7 6 7 6 5 4 3 1 358 356 355 353 350 347 343 339 335 330 325 317 310 302 296 290 285 281 277 273 271 268 267 266 264 263 261 259 257 256 256 254 253 252 250 247 244 243 242 241 241 242 242 242 241 240 238 238 238 237 237 237 237 237 238 237 236
16 16 16 15 15 15 14 14 14 13 13 13 13 14 14 13 13 12 11 9 8 7 7 7 6 5 4 2 359 356 354 352 350 348 345 342 338 334 329 323 315 308 301 294 287 282 276 272 269 266 264 263 263 262 261 260 258 258 257 256 254 252 250 247 244 241 240 239 238 238 239 239 238 238 237 237 237 237 237 237 237 238 238 237 236
16 16 15 15 15 15 15 14 14 14 13 13 13 13 13 13 13 13 12 11 10 8 7 6 6 6 5 3 0 358 355 352 350 349 347 345 343 339 335 331 326 320 312 304 296 289 283 278 274 269 264 262 260 259 259 259 259 258 257 257 255 254 252 249 246 243 241 239 239 238 238 237 237 236 235 236 236 237 237 238 238 238 238 237 236
16 16 15 15 15 15 15 14 14 14 14 13 13 13 13 13 13 13 13 13 11 9 8 7 7 6 5 4 2 360 357 354 351 350 349 347 346 344 341 338 334 330 325 318 311 304 296 289 283 278 271 267 263 260 259 258 258 257 257 256 255 254 252 250 247 244 241 240 239 239 239 238 238 237 235 235 236 236 237 238 239 239 238 238 237
16 16 16 15 15 15 15 15 14 14 13 13 13 13 13 13 13 12 13 13 13 11 10 8 7 6 6 5 4 2 359 357 354 353 351 349 347 345 344 342 339 336 332 327 321 314 307 299 293 287 281 275 271 266 262 260 258 257 257 256 256 255 254 252 249 246 242 239 238 237 238 238 238 238 238 237 237 237 238 239 239 239 239 237 237
16 16 16 15 15 15 14 14 14 14 13 13 13 13 13 12 12 12 12 12 12 12 11 9 8 6 5 5 4 3 1 359 357 355 353 352 349 347 345 344 342 339 336 332 327 321 314 307 300 294 288 283 278 273 267 263 259 257 255 255 254 254 254 253 252 251 248 244 240 237 236 236 237 237 238 238 239 239 239 240 240 239 238 237 237
16 16 16 15 15 15 14 14 14 14 13 13 13 12 12 12 12 12 12 11 11 11 11 10 9 7 5 4 4 3 3 1 359 357 355 354 352 350 348 345 343 342 339 336 333 328 323 317 310 303 297 290 284 279 274 269 264 259 255 252 250 248 248 249 250 250 251 249 247 243 239 236 235 235 235 237 238 239 240 240 240 239 238 236 236
16 16 15 15 15 15 14 14 14 13 13 13 13 12 12 11 11 11 11 11 11 11 10 10 9 8 6 5 3 3 2 2 1 359 357 356 355 353 351 348 345 342 340 337 335 332 330 326 320 315 308 302 296 289 282 276 271 265 260 255 251 247 245 244 245 246 248 249 249 249 246 242 239 236 234 234 236 237 239 240 240 239 238 236 235
15 15 15 15 15 15 14 14 14 13 13 13 12 12 12 11 11 11 10 10 10 10 10 10 9 9 7 6 4 2 1 1 1 0 359 358 356 354 353 351 348 344 340 338 336 335 333 330 327 322 317 313 308 302 295 288 281 274 268 262 257 252 248 245 243 243 245 246 246 247 248 247 245 241 238 235 233 233 235 237 238 240 240 238 236
14 14 15 15 14 14 14 14 13 13 13 12 12 12 12 11 10 10 10 10 10 9 9 9 9 9 8 7 5 2 1 360 360 360 360 358 357 355 354 352 350 347 344 340 338 336 335 333 330 327 323 320 316 309 303 296 290 285 279 272 265 259 254 250 247 245 244 244 244 244 243 244 245 244 242 239 236 233 232 234 236 237 238 238 236
14 14 14 14 14 14 14 13 13 13 12 12 12 12 11 11 11 10 9 9 8 8 9 8 8 7 7 7 7 5 2 0 359 359 359 358 357 355 354 353 351 349 347 344 340 338 336 335 333 330 326 323 318 312 304 299 294 290 286 282 277 271 265 259 255 252 249 247 246 244 242 240 240 240 240 240 238 236 234 233 233 234 236 236 236
Height
10230 10226 10221 10216 10212 10208 10205 10202 10199 10196 10194 10192 10190 10189 10187 10186 10185 10185 10185 10186 10186 10186 10186 10187 10188 10190 10192 10194 10197 10200 10202 10205 10208 10211 10214 10218 10222 10227 10231 10235 10240 10245 10249 10254 10259 10264 10269 10273 10278 10283 10287 10293 10299 10305 10310 10316 10320 10325 10331 10337 10343 10349 10356 10362 10368 10374 10382 10389 10393 10398 10406 10414 10421 10427 10432 10438 10444 10449 10455 10462 10469 10476 10484 10490 10495
10215 10211 10207 10203 10199 10196 10192 10189 10186 10183 10180 10178 10176 10174 10173 10171 10170 10170 10169 10169 10170 10169 10169 10170 10170 10172 10174 10176 10179 10182 10184 10187 10190 10193 10196 10200 10205 10209 10213 10217 10221 10227 10232 10236 10241 10246 10251 10256 10261 10266 10271 10277 10283 10289 10295 10300 10305 10310 10315 10321 10327 10333 10339 10346 10352 10357 10364 10371 10377 10383 10390 10398 10404 10410 10417 10423 10429 10433 10437 10444 10453 10460 10467 10474 10478
10201 10197 10193 10189 10185 10182 10179 10176 10173 10170 10168 10165 10162 10161 10159 10157 10156 10154 10153 10154 10154 10154 10154 10154 10154 10155 10157 10159 10162 10165 10168 10170 10173 10176 10179 10183 10187 10191 10195 10198 10203 10208 10213 10217 10222 10228 10233 10238 10244 10249 10255 10260 10267 10273 10278 10284 10289 10294 10299 10305 10311 10317 10323 10330 10335 10340 10346 10353 10360 10368 10377 10382 10385 10392 10401 10408 10412 10415 10418 10425 10434 10442 10450 10456 10460
10189 10185 10180 10176 10172 10169 10166 10163 10160 10158 10155 10152 10150 10148 10146 10144 10142 10141 10140 10140 10140 10139 10138 10138 10139 10141 10142 10144 10146 10149 10152 10155 10158 10162 10164 10168 10171 10174 10177 10181 10185 10190 10194 10199 10204 10209 10214 10220 10226 10231 10237 10243 10250 10256 10261 10265 10270 10275 10281 10287 10294 10300 10307 10313 10317 10322 10329 10335 10342 10351 10361 10365 10369 10378 10385 10389 10392 10396 10402 10410 10417 10425 10432 10439 10445
10178 10174 10169 10164 10160 10156 10153 10150 10147 10145 10142 10139 10137 10134 10132 10131 10129 10128 10127 10126 10125 10124 10123 10124 10125 10127 10129 10130 10132 10135 10138 10140 10143 10147 10151 10153 10156 10159 10161 10163 10167 10171 10176 10181 10186 10191 10196 10202 10208 10214 10219 10226 10232 10238 10242 10247 10251 10256 10262 10268 10276 10282 10289 10295 10299 10304 10311 10317 10324 10334 10343 10347 10355 10365 10367 10369 10374 10379 10387 10395 10401 10408 10414 10421 10430
10168 10163 10158 10153 10149 10144 10140 10137 10134 10131 10128 10125 10123 10120 10118 10117 10115 10114 10114 10113 10112 10111 10110 10111 10111 10112 10115 10117 10119 10121 10124 10127 10129 10133 10136 10138 10140 10143 10144 10146 10148 10153 10158 10163 10168 10173 10178 10184 10190 10196 10202 10208 10213 10219 10224 10229 10233 10237 10242 10248 10256 10263 10270 10277 10282 10287 10292 10298 10305 10315 10323 10328 10339 10348 10349 10353 10359 10363 10370 10377 10384 10392 10398 10404 10414
10155 10150 10146 10142 10137 10133 10129 10125 10121 10118 10114 10111 10108 10106 10104 10103 10102 10102 10101 10100 10099 10098 10097 10096 10096 10097 10099 10102 10104 10106 10109 10112 10114 10117 10121 10122 10123 10126 10127 10128 10130 10134 10140 10144 10149 10155 10160 10166 10172 10178 10184 10189 10194 10200 10206 10210 10214 10218 10223 10228 10235 10242 10249 10258 10265 10268 10272 10279 10287 10295 10302 10310 10320 10327 10331 10338 10343 10347 10353 10359 10366 10375 10383 10390 10397
10141 10136 10131 10127 10124 10120 10117 10114 10109 10106 10102 10099 10096 10093 10091 10091 10090 10089 10088 10088 10086 10084 10082 10081 10081 10082 10084 10086 10088 10091 10093 10097 10099 10102 10105 10106 10108 10110 10109 10110 10113 10116 10122 10126 10130 10135 10141 10148 10154 10160 10166 10170 10175 10181 10186 10190 10195 10199 10204 10209 10217 10223 10229 10237 10246 10250 10253 10261 10268 10273 10281 10290 10299 10307 10314 10320 10326 10332 10338 10342 10348 10356 10364 10374 10382
10130 10124 10119 10114 10109 10106 10103 10101 10097 10094 10091 10088 10086 10083 10081 10079 10078 10077 10076 10074 10072 10070 10068 10067 10066 10068 10071 10073 10076 10078 10080 10083 10086 10087 10089 10090 10093 10095 10094 10095 10097 10100 10105 10110 10114 10119 10125 10131 10137 10143 10148 10153 10157 10161 10165 10170 10175 10180 10185 10191 10198 10204 10210 10217 10225 10231 10235 10242 10249 10254 10261 10270 10278 10287 10295 10302 10308 10317 10323 10326 10331 10337 10344 10356 10367
10123 10116 10110 10103 10098 10094 10090 10087 10084 10081 10078 10076 10074 10072 10071 10069 10067 10066 10064 10061 10059 10057 10055 10053 10053 10055 10058 10060 10063 10065 10066 10069 10071 10072 10073 10074 10077 10079 10079 10080 10083 10085 10090 10095 10100 10105 10110 10116 10122 10127 10131 10135 10139 10142 10145 10150 10156 10161 10166 10172 10178 10185 10190 10196 10204 10210 10215 10222 10230 10235 10242 10250 10258 10267 10276 10284 10291 10299 10306 10310 10313 10318 10327 10338 10347
10118 10110 10103 10096 10091 10085 10081 10077 10073 10069 10066 10063 10061 10060 10059 10058 10057 10055 10053 10050 10048 10046 10044 10043 10043 10044 10046 10049 10051 10053 10053 10055 10056 10057 10058 10058 10060 10062 10063 10064 10067 10070 10076 10081 10085 10090 10095 10101 10106 10111 10115 10118 10121 10124 10128 10133 10139 10144 10149 10154 10160 10166 10170 10175 10183 10190 10195 10202 10210 10216 10222 10230 10238 10246 10256 10264 10271 10278 10287 10293 10297 10300 10309 10319 10325
10110 10103 10096 10090 10084 10078 10073 10069 10064 10060 10056 10052 10050 10048 10047 10046 10044 10044 10042 10038 10037 10036 10035 10034 10034 10035 10036 10038 10039 10041 10041 10042 10043 10044 10043 10043 10044 10046 10048 10049 10051 10056 10062 10066 10068 10074 10080 10085 10088 10092 10096 10099 10103 10109 10114 10120 10126 10131 10136 10140 10145 10149 10153 10157 10163 10170 10175 10181 10190 10196 10202 10210 10218 10226 10235 10242 10249 10258 10266 10275 10281 10284 10289 10299 10307
10099 10092 10087 10081 10076 10071 10066 10062 10057 10052 10048 10044 10041 10038 10036 10034 10033 10032 10030 10027 10026 10026 10025 10024 10024 10024 10025 10026 10027 10028 10029 10030 10031 10031 10030 10030 10031 10033 10035 10038 10039 10043 10048 10050 10052 10058 10065 10069 10070 10073 10077 10081 10087 10093 10100 10107 10113 10119 10124 10129 10133 10136 10139 10143 10148 10155 10159 10164 10171 10178 10183 10191 10199 10206 10214 10220 10228 10238 10245 10254 10264 10269 10272 10281 10289
10090 10083 10078 10073 10069 10064 10060 10055 10050 10045 10041 10037 10033 10029 10027 10025 10023 10022 10019 10017 10016 10015 10014 10014 10014 10014 10014 10015 10015 10016 10017 10018 10019 10019 10019 10018 10020 10022 10024 10027 10029 10031 10034 10036 10038 10043 10049 10053 10054 10057 10062 10067 10072 10079 10086 10093 10099 10104 10110 10115 10119 10122 10125 10129 10135 10141 10145 10149 10156 10162 10167 10174 10182 10188 10193 10198 10207 10217 10225 10235 10247 10251 10255 10262 10268
10083 10075 10069 10063 10059 10055 10051 10047 10043 10039 10034 10030 10026 10022 10018 10016 10013 10011 10009 10007 10007 10006 10004 10004 10003 10003 10004 10005 10005 10005 10006 10007 10007 10008 10008 10008 10009 10011 10013 10015 10017 10018 10021 10023 10025 10027 10032 10037 10041 10045 10051 10055 10060 10066 10073 10079 10084 10089 10094 10098 10102 10105 10108 10113 10120 10125 10129 10134 10141 10147 10151 10158 10166 10172 10175 10179 10187 10197 10207 10216 10225 10230 10236 10243 10249
10077 10070 10064 10058 10052 10047 10043 10039 10036 10032 10027 10023 10020 10016 10012 10008 10005 10003 10001 9999 9997 9996 9995 9994 9993 9993 9993 9994 9994 9995 9996 9996 9995 9995 9997 9997 9998 10000 10001 10002 10003 10005 10009 10011 10012 10015 10020 10025 10030 10036 10040 10044 10048 10054 10060 10065 10070 10075 10079 10082 10085 10088 10092 10098 10104 10108 10112 10117 10122 10129 10134 10141 10150 10157 10160 10163 10168 10177 10187 10196 10203 10210 10218 10226 10233
10075 10068 10062 10056 10050 10044 10039 10034 10030 10025 10020 10016 10012 10009 10006 10002 9999 9996 9993 9991 9989 9988 9986 9986 9985 9984 9983 9983 9984 9985 9986 9987 9986 9986 9987 9988 9988 9989 9990 9991 9992 9995 9998 10000 10002 10006 10011 10016 10021 10027 10030 10033 10037 10042 10047 10052 10057 10062 10065 10067 10070 10072 10077 10083 10086 10090 10096 10100 10105 10111 10118 10127 10135 10140 10142 10146 10151 10157 10167 10177 10185 10192 10200 10208 10217
10069 10062 10055 10049 10044 10039 10034 10029 10025 10020 10015 10010 10005 10001 9998 9995 9992 9989 9986 9984 9982 9980 9978 9977 9976 9975 9975 9975 9975 9975 9976 9976 9977 9977 9978 9979 9980 9981 9982 9983 9985 9987 9990 9992 9994 9998 10003 10007 10012 10016 10019 10022 10026 10030 10035 10039 10044 10047 10050 10053 10056 10058 10063 10068 10069 10072 10078 10082 10088 10096 10103 10112 10119 10122 10124 10129 10134 10139 10146 10156 10165 10173 10181 10190 10201
10065 10056 10049 10042 10036 10031 10026 10021 10017 10013 10009 10004 9999 9994 9990 9987 9984 9982 9979 9977 9974 9973 9971 9970 9968 9967 9967 9967 9967 9967 9967 9967 9967 9967 9968 9969 9971 9972 9974 9975 9976 9978 9980 9982 9985 9989 9993 9997 10001 10005 10008 10011 10015 10018 10022 10026 10029 10032 10036 10040 10043 10045 10049 10052 10053 10057 10062 10066 10073 10081 10087 10095 10102 10103 10106 10111 10116 10122 10129 10137 10146 10155 10162 10172 10185
10067 10057 10048 10040 10033 10026 10020 10015 10010 10005 10001 9997 9993 9988 9983 9980 9977 9974 9971 9969 9967 9965 9964 9963 9961 9960 9959 9959 9959 9959 9959 9959 9959 9959 9960 9961 9962 9963 9965 9966 9967 9968 9970 9973 9976 9979 9982 9986 9991 9994 9998 10001 10004 10007 10010 10014 10017 10021 10024 10027 10029 10032 10036 10038 10039 10043 10047 10051 10058 10065 10071 10078 10084 10085 10088 10094 10100 10107 10114 10121 10128 10137 10145 10154 10167
10065 10057 10048 10039 10031 10023 10016 10009 10004 9999 9994 9990 9986 9982 9978 9974 9970 9966 9963 9961 9960 9958 9957 9955 9954 9953 9952 9951 9951 9951 9951 9951 9951 9952 9952 9953 9953 9954 9956 9957 9958 9960 9962 9964 9967 9970 9973 9976 9981 9984 9988 9991 9994 9996 9999 10003 10008 10010 10012 10014 10016 10019 10022 10025 10027 10031 10035 10038 10044 10050 10055 10061 10065 10068 10073 10079 10085 10092 10099 10105 10112 10121 10130 10138 10149
10063 10055 10047 10038 10029 10020 10013 10006 10000 9994 9989 9984 9980 9976 9972 9969 9965 9961 9957 9954 9952 9951 9949 9948 9947 9945 9945 9944 9943 9943 9943 9943 9943 9943 9944 9945 9945 9946 9947 9948 9949 9951 9954 9956 9959 9961 9964 9967 9970 9974 9977 9980 9983 9986 9990 9994 9997 9998 10000 10002 10004 10007 10010 10013 10015 10018 10022 10026 10031 10036 10040 10044 10047 10052 10058 10064 10070 10076 10083 10091 10098 10107 10116 10124 10132
10062 10053 10044 10035 10027 10019 10011 10004 9998 9992 9986 9980 9975 9971 9967 9964 9960 9957 9953 9949 9946 9944 9942 9941 9940 9938 9937 9937 9936 9936 9936 9935 9935 9935 9935 9936 9937 9938 9939 9940 9941 9943 9945 9948 9950 9952 9955 9957 9960 9963 9966 9969 9972 9976 9979 9983 9985 9986 9988 9990 9992 9995 9997 10000 10002 10005 10009 10013 10018 10021 10024 10027 10032 10038 10045 10050 10054 10060 10067 10075 10084 10092 10101 10110 10116
10056 10047 10039 10031 10024 10017 10009 10002 9995 9989 9983 9977 9972 9967 9962 9959 9956 9952 9949 9945 9942 9939 9936 9935 9933 9932 9931 9930 9930 9929 9929 9928 9928 9927 9927 9928 9928 9929 9930 9931 9932 9934 9936 9938 9941 9943 9946 9947 9949 9952 9955 9958 9962 9966 9969 9971 9972 9973 9975 9976 9978 9981 9984 9987 9990 9993 9996 10000 10004 10007 10009 10013 10018 10025 10031 10034 10038 10045 10052 10060 10069 10076 10084 10095 10103
10050 10042 10035 10028 10021 10014 10006 9999 9993 9986 9980 9975 9969 9964 9959 9954 9951 9948 9944 9941 9938 9935 9932 9930 9928 9926 9925 9924 9924 9923 9922 9922 9921 9921 9920 9920 9921 9921 9922 9923 9924 9925 9927 9928 9931 9933 9935 9937 9939 9942 9946 9949 9952 9955 9957 9958 9959 9960 9961 9963 9965 9969 9972 9975 9978 9980 9983 9987 9991 9994 9996 10001 10006 10012 10017 10019 10023 10031 10038 10045 10052 10059 10067 10078 10087
10050 10043 10035 10027 10019 10011 10004 9998 9991 9985 9979 9973 9967 9962 9957 9952 9948 9944 9940 9937 9934 9931 9928 9926 9924 9922 9920 9918 9917 9917 9916 9916 9916 9915 9915 9915 9915 9915 9916 9916 9917 9918 9919 9920 9921 9923 9924 9926 9930 9935 9938 9940 9942 9943 9944 9946 9948 9950 9951 9952 9955 9958 9961 9964 9967 9969 9972 9976 9980 9984 9986 9989 9995 9999 10002 10005 10009 10017 10024 10030 10037 10044 10051 10060 10069
10052 10044 10035 10026 10018 10010 10003 9997 9990 9984 9978 9972 9966 9960 9955 9950 9945 9941 9937 9934 9930 9927 9925 9922 9920 9917 9915 9913 9912 9911 9910 9910 9910 9910 9909 9909 9909 9909 9910 9910 9911 9911 9912 9912 9913 9914 9914 9918 9923 9927 9930 9931 9932 9934 9936 9938 9940 9941 9941 9942 9944 9947 9950 9953 9956 9960 9963 9967 9970 9973 9975 9979 9983 9985 9988 9992 9997 10003 10011 10017 10024 10030 10037 10044 10053
10051 10042 10033 10025 10018 10011 10004 9997 9990 9983 9976 9970 9965 9959 9954 9948 9943 9939 9935 9931 9927 9924 9921 9919 9916 9914 9912 9910 9908 9906 9905 9905 9905 9905 9904 9904 9904 9904 9904 9904 9904 9904 9905 9905 9906 9907 9909 9912 9916 9919 9921 9922 9924 9926 9928 9929 9930 9931 9932 9933 9935 9938 9940 9943 9946 9950 9953 9956 9960 9962 9965 9969 9972 9974 9977 9981 9985 9990 9997 10004 10010 10016 10023 10030 10039
10052 10042 10034 10026 10019 10012 10004 9997 9989 9982 9976 9969 9963 9958 9952 9947 9942 9938 9933 9929 9925 9922 9918 9915 9913 9910 9908 9906 9905 9903 9901 9900 9900 9899 9899 9899 9898 9898 9898 9898 9898 9898 9899 9900 9901 9902 9904 9906 9908 9910 9912 9914 9916 9918 9919 9920 9921 9922 9923 9925 9927 9930 9932 9934 9937 9940 9943 9946 9949 9952 9955 9958 9962 9965 9968 9971 9975 9979 9985 9991 9996 10003 10010 10017 10025
10053 10044 10036 10028 10020 10011 10003 9996 9989 9982 9975 9968 9962 9956 9951 9946 9941 9936 9932 9928 9924 9920 9916 9913 9910 9908 9905 9903 9901 9900 9898 9897 9896 9895 9894 9893 9893 9892 9892 9892 9892 9893 9894 9895 9896 9898 9899 9900 9901 9903 9905 9906 9908 9910 9911 9912 9913 9914 9915 9917 9919 9922 9924 9926 9928 9930 9933 9936 9939 9941 9945 9948 9952 9955 9959 9962 9966 9970 9974 9979 9984 9990 9998 10005 10012
10056 10047 10038 10029 10020 10011 10003 9995 9988 9981 9975 9969 9963 9956 9950 9945 9940 9935 9931 9926 9922 9919 9915 9912 9909 9906 9903 9901 9899 9897 9895 9894 9893 9893 9891 9890 9888 9887 9886 9885 9886 9887 9888 9890 9891 9892 9892 9893 9895 9896 9897 9899 9901 9902 9903 9904 9905 9906 9907 9908 9910 9913 9916 9917 9919 9921 9924 9927 9929 9932 9935 9938 9942 9945 9949 9953 9957 9961 9965 9968 9973 9980 9987 9993 10000
10060 10050 10041 10031 10022 10013 10004 9995 9988 9980 9974 9968 9962 9956 9950 9944 9939 9934 9929 9925 9921 9918 9914 9911 9908 9904 9902 9899 9897 9895 9893 9891 9890 9889 9888 9887 9886 9884 9883 9881 9881 9882 9882 9883 9884 9884 9885 9886 9887 9889 9890 9892 9893 9895 9896 9896 9898 9899 9900 9901 9902 9904 9907 9909 9911 9912 9915 9917 9920 9923 9926 9929 9932 9936 9940 9944 9947 9951 9955 9959 9963 9969 9976 9982 9988
10064 10054 10044 10034 10026 10016 10006 9997 9989 9981 9974 9968 9962 9956 9950 9944 9938 9933 9928 9924 9920 9917 9914 9910 9907 9903 9900 9898 9895 9893 9891 9889 9888 9886 9885 9884 9883 9882 9880 9879 9878 9878 9878 9878 9879 9879 9880 9881 9882 9883 9884 9886 9887 9888 9890 9891 9892 9893 9894 9895 9896 9897 9899 9901 9903 9904 9907 9909 9912 9914 9917 9920 9924 9927 9931 9934 9938 9941 9945 9949 9954 9959 9964 9970 9975
10067 10056 10046 10037 10027 10017 10008 9999 9990 9982 9975 9969 9962 9956 9950 9944 9939 9934 9929 9924 9920 9916 9913 9910 9907 9903 9900 9897 9894 9892 9890 9888 9886 9884 9883 9881 9880 9879 9878 9877 9876 9876 9875 9875 9875 9875 9876 9877 9878 9879 9880 9880 9881 9882 9883 9884 9885 9886 9887 9888 9889 9890 9892 9894 9896 9897 9899 9902 9904 9907 9909 9912 9915 9919 9922 9925 9929 9932 9936 9940 9944 9949 9954 9958 9963
10070 10058 10048 10038 10028 10018 10009 9999 9991 9983 9976 9970 9964 9957 9951 9945 9940 9935 9930 9925 9921 9916 9913 9909 9906 9903 9900 9897 9893 9891 9888 9886 9884 9882 9881 9879 9878 9877 9876 9875 9874 9873 9873 9872 9872 9872 9872 9873 9873 9874 9875 9875 9875 9876 9876 9877 9878 9879 9881 9882 9883 9884 9885 9887 9888 9890 9892 9894 9896 9898 9901 9904 9907 9909 9913 9917 9920 9923 9927 9931 9935 9939 9943 9948 9952
10074 10063 10053 10042 10031 10021 10011 10002 9993 9985 9978 9972 9965 9958 9951 9946 9941 9935 9930 9925 9921 9917 9913 9909 9906 9903 9900 9896 9893 9890 9888 9885 9883 9881 9879 9878 9876 9875 9874 9873 9872 9871 9870 9870 9869 9869 9869 9869 9870 9870 9870 9871 9871 9871 9871 9871 9872 9873 9874 9876 9877 9878 9879 9880 9881 9883 9884 9887 9889 9891 9893 9896 9898 9901 9905 9908 9911 9915 9918 9922 9925 9929 9934 9938 9942
10075 10066 10056 10045 10034 10024 10014 10006 9997 9989 9982 9974 9966 9959 9953 9947 9941 9936 9931 9926 9921 9917 9913 9909 9906 9903 9899 9896 9893 9890 9887 9885 9882 9880 9878 9876 9875 9873 9872 9870 9869 9868 9867 9867 9866 9866 9866 9866 9866 9866 9866 9866 9866 9866 9866 9866 9866 9867 9868 9869 9871 9872 9872 9873 9874 9875 9877 9879 9881 9884 9886 9888 9891 9894 9897 9900 9903 9906 9910 9913 9917 9921 9925 9929 9933
10077 10066 10056 10046 10036 10026 10017 10009 10001 9992 9984 9976 9968 9961 9954 9948 9942 9937 9931 9926 9921 9917 9913 9909 9906 9902 9899 9896 9893 9890 9887 9885 9882 9879 9877 9875 9873 9871 9869 9868 9867 9866 9865 9864 9863 9863 9863 9863 9862 9862 9862 9862 9862 9862 9862 9862 9862 9862 9862 9863 9864 9866 9867 9868 9868 9869 9871 9872 9875 9877 9879 9881 9884 9886 9889 9893 9896 9898 9901 9904 9908 9911 9915 9919 9923
10080 10069 10058 10048 10038 10029 10020 10011 10003 9995 9987 9979 9970 9963 9955 9949 9943 9937 9932 9927 9922 9918 9914 9910 9906 9902 9899 9895 9892 9890 9887 9884 9881 9879 9876 9873 9871 9869 9868 9866 9865 9864 9863 9862 9861 9860 9860 9860 9859 9859 9858 9858 9858 9857 9858 9858 9857 9858 9858 9858 9859 9860 9862 9863 9864 9865 9865 9867 9869 9871 9872 9875 9877 9880 9883 9886 9888 9890 9892 9895 9898 9902 9905 9908 9913
10085 10074 10063 10052 10042 10032 10022 10014 10006 9998 9990 9982 9974 9965 9957 9951 9944 9938 9933 9928 9923 9919 9915 9910 9906 9903 9899 9895 9892 9889 9886 9884 9881 9878 9875 9873 9871 9869 9867 9865 9864 9862 9861 9860 9859 9858 9858 9857 9856 9856 9855 9855 9854 9854 9854 9853 9853 9853 9853 9854 9854 9855 9856 9858 9859 9859 9860 9862 9863 9865 9867 9869 9871 9874 9876 9878 9880 9882 9884 9887 9890 9892 9894 9899 9906
10089 10078 10067 10056 10046 10036 10027 10018 10008 9999 9992 9984 9976 9968 9961 9954 9947 9941 9935 9930 9925 9920 9916 9911 9907 9903 9900 9896 9893 9890 9886 9883 9880 9877 9875 9873 9870 9868 9866 9864 9862 9861 9859 9858 9857 9856 9855 9854 9853 9853 9852 9851 9851 9851 9850 9850 9849 9849 9849 9849 9849 9850 9851 9852 9853 9854 9855 9856 9857 9859 9861 9863 9865 9868 9869 9871 9872 9874 9876 9879 9881 9883 9886 9893 9899
10093 10082 10071 10060 10049 10039 10030 10021 10012 10003 9994 9986 9979 9972 9965 9958 9951 9944 9938 9933 9927 9922 9917 9913 9909 9904 9901 9897 9894 9890 9887 9883 9880 9877 9874 9872 9870 9868 9866 9864 9862 9860 9858 9856 9855 9853 9852 9851 9850 9850 9849 9848 9847 9847 9846 9846 9845 9845 9845 9845 9845 9845 9846 9847 9848 9848 9849 9850 9851 9852 9854 9856 9859 9861 9863 9864 9865 9867 9869 9872 9873 9875 9880 9885 9890
10099 10087 10075 10064 10054 10044 10034 10025 10016 10007 9999 9990 9983 9975 9969 9962 9955 9948 9942 9935 9929 9924 9919 9914 9910 9906 9902 9898 9894 9891 9887 9884 9881 9877 9875 9872 9869 9867 9865 9863 9861 9859 9857 9855 9853 9851 9850 9849 9848 9847 9846 9845 9844 9843 9842 9842 9842 9841 9841 9841 9842 9842 9842 9843 9844 9844 9845 9845 9846 9847 9848 9850 9852 9854 9856 9857 9859 9861 9862 9864 9866 9869 9873 9878 9882
10105 10093 10081 10069 10059 10049 10039 10029 10020 10012 10004 9996 9988 9979 9972 9965 9958 9952 9946 9939 9933 9927 9922 9917 9912 9908 9903 9899 9896 9892 9889 9885 9882 9878 9875 9872 9869 9867 9864 9862 9860 9858 9856 9854 9852 9850 9848 9847 9845 9844 9843 9842 9841 9840 9839 9839 9838 9837 9837 9837 9837 9837 9838 9838 9839 9840 9840 9841 9842 9843 9844 9845 9847 9848 9850 9852 9853 9855 9856 9857 9860 9864 9868 9872 9876
10109 10098 10087 10075 10063 10053 10043 10033 10024 10015 10007 9999 9991 9983 9975 9967 9961 9954 9948 9941 9936 9930 9924 9919 9914 9909 9905 9901 9897 9893 9889 9886 9883 9879 9876 9873 9870 9866 9864 9861 9858 9856 9854 9852 9850 9848 9846 9845 9843 9842 9840 9839 9838 9838 9837 9836 9835 9834 9834 9833 9833 9833 9833 9833 9834 9834 9835 9836 9837 9838 9839 9840 9842 9843 9845 9846 9848 9849 9851 9852 9855 9858 9863 9867 9869
10113 10102 10091 10080 10068 10057 10046 10036 10027 10017 10009 10000 9992 9984 9976 9969 9963 9956 9949 9943 9937 9931 9925 9920 9915 9910 9906 9901 9897 9894 9890 9886 9883 9879 9876 9873 9870 9866 9863 9860 9857 9855 9853 9850 9848 9846 9845 9843 9841 9840 9838 9837 9836 9834 9834 9833 9832 9831 9830 9830 9830 9830 9830 9829 9829 9829 9830 9831 9832 9833 9834 9835 9837 9838 9839 9841 9842 9844 9845 9847 9850 9853 9857 9861 9862
10117 10105 10094 10083 10072 10060 10049 10038 10029 10019 10011 10002 9994 9986 9979 9971 9964 9958 9952 9945 9939 9933 9927 9922 9916 9912 9907 9902 9898 9894 9890 9886 9883 9879 9876 9872 9869 9866 9863 9860 9857 9854 9852 9849 9847 9845 9843 9841 9839 9838 9836 9835 9833 9832 9831 9830 9829 9828 9827 9826 9826 9826 9826 9826 9825 9825 9825 9826 9827 9828 9829 9830 9831 9832 9834 9835 9837 9838 9840 9842 9844 9847 9850 9853 9855
10121 10109 10099 10087 10076 10065 10054 10043 10032 10022 10013 10005 9997 9989 9981 9974 9967 9960 9954 9948 9942 9936 9929 9924 9918 9913 9908 9903 9899 9894 9890 9886 9882 9879 9876 9872 9869 9866 9863 9860 9857 9854 9851 9848 9846 9844 9841 9839 9837 9836 9834 9832 9831 9830 9829 9827 9826 9825 9824 9823 9823 9822 9822 9822 9822 9822 9822 9822 9822 9823 9824 9825 9826 9827 9828 9830 9831 9833 9834 9836 9838 9840 9842 9846 9849
10123 10113 10103 10092 10080 10069 10058 10048 10037 10027 10017 10008 10000 9992 9984 9976 9969 9963 9956 9950 9944 9938 9932 9926 9921 9915 9909 9904 9899 9895 9891 9887 9883 9879 9876 9872 9869 9866 9863 9860 9857 9854 9851 9848 9845 9843 9840 9838 9836 9834 9832 9831 9829 9828 9826 9825 9824 9823 9822 9821 9820 9819 9819 9819 9819 9819 9819 9819 9819 9819 9819 9820 9821 9822 9823 9825 9826 9828 9829 9830 9832 9834 9836 9839 9843
10125 10114 10104 10093 10082 10072 10061 10051 10041 10032 10022 10013 10003 9995 9987 9979 9972 9965 9958 9952 9946 9940 9934 9928 9922 9917 9912 9906 9901 9896 9892 9888 9883 9880 9876 9872 9869 9866 9863 9860 9857 9854 9851 9848 9845 9842 9840 9837 9835 9833 9831 9829 9828 9826 9825 9823 9822 9821 9820 9819 9818 9817 9816 9816 9816 9816 9815 9815 9815 9816 9816 9816 9817 9818 9819 9820 9821 9822 9824 9825 9827 9828 9830 9833 9836
10129 10118 10106 10094 10083 10073 10064 10054 10045 10035 10026 10017 10007 9998 9989 9981 9974 9966 9959 9952 9946 9940 9935 9929 9923 9918 9912 9907 9903 9898 9893 9888 9884 9880 9876 9872 9869 9866 9863 9860 9857 9854 9851 9848 9845 9842 9840 9837 9835 9832 9830 9828 9827 9825 9823 9822 9820 9819 9818 9816 9815 9815 9814 9813 9813 9813 9812 9812 9812 9813 9813 9813 9813 9814 9815 9816 9817 9818 9819 9820 9822 9823 9825 9827 9829